logo dgac
Martes 21 de Septiembre del 2021
Buscar por aerodromo o helipuerto
Ingrese nombre de aeródromo, localidad o designador OACI:

Aeródromo: Cañal Bajo - Carlos Hott Siebert (PUB) (SCJO)

Ubicación: Osorno, X Región, Chile (40º 36' 41'' S, 73º 03' 38'' W) Ver ubicación en el mapa

Pistas

Orientación Dimensión Pendiente Superficie Resistencia APCH THR RWY PAPI
15/33 1950 x 45 0,02 ASPH PCN 40 F/C/W/T
15/33 782 x 19 PASTO 5700 KG No No No No
Horas de operación HJ
Elevación 57 m / 187 ft
Otra Información Adm : D.G.A.C.
Uso : PUB
Ubicado a 7 km SE de Osorno
TEL 642232529 / 224392865
email : aro.osorno@dgac.gob.cl

Cámara de Aeródromos www.dgac.gob.cl

Otra información ver AIP-Chile Volumen I AD 3.9-14.1-O

CCCM/FCCV Descargar
andera de Chile
Mapa de Cañal Bajo - Carlos Hott Siebert (PUB) (SCJO)

Último METAR

METAR SCJO 211200Z 20005KT 9999 OVC010 08/06 Q1018

Último TAF

TAF SCJO 211022Z 2112/2200 18008KT 9999 BKN010 TN08/2112Z TX18/2119Z BECMG 2113/2115 CAVOK

Últimas fotos cámaras

Imagen aerodromo Cañal Bajo - Carlos Hott Siebert (PUB) (SCJO) Sur tomada el 21-09-2021 12:02:17 Imagen aerodromo Cañal Bajo - Carlos Hott Siebert (PUB) (SCJO) N-Oeste tomada el 21-09-2021 12:00:58

Último NOTAM

C3876/21 NOTAMN Q)SCTZ/QFDAS/IV/M/A/000/999/4037S07304W005 A)SCJO B)2109010000 C)2112012359 E)PUENTE DE EMBARQUE U/S DEBIDO A WIP